CAPE
252 719 625 516 1385 587 272 162 143 123 152 297 176 332 244 189 10 287 14 125 117 266 498 524 609 527 447 586 338 1044 1201 1263 1116 1218 1512 1274 1244 1537 1424 1426 931 847 1242 1847 1809 1720 1659 1812 2012
121 57 416 493 711 256 324 205 177 176 225 279 313 269 408 32 16 51 130 157 240 317 535 623 446 407 405 426 376 1056 837 1048 1165 1033 1094 1010 681 851 641 434 1467 1579 1735 1794 1795 1703 1946 1930 1934
64 135 318 457 345 278 435 360 326 158 145 253 358 359 305 5 30 98 221 348 453 399 422 349 512 374 266 496 458 639 500 584 791 628 667 539 619 688 706 1355 1742 1849 1946 1779 1761 1686 1601 1593 1660
489 216 131 528 270 516 505 438 193 126 116 207 206 258 53 80 30 100 291 225 339 282 244 547 787 643 527 507 502 286 287 886 1251 797 417 644 1162 1453 1268 1823 1608 1920 1728 1613 1723 1603 1527 1684 1779
561 172 303 257 454 529 494 272 342 116 112 175 66 39 73 174 21 107 153 200 341 217 358 391 554 609 543 319 205 602 743 833 1277 1429 1505 1248 1396 1318 1392 1836 1619 1800 1446 1613 1522 1582 1650 1825 1939
231 229 144 126 154 543 472 262 238 146 125 43 0 28 369 133 32 58 48 162 354 121 271 195 634 732 421 169 17 269 676 609 729 1010 1490 1486 1418 1603 1901 1646 1590 1519 1551 1588 1516 1623 1684 1605 2156
245 128 89 119 195 619 402 209 459 77 28 40 18 83 174 101 41 13 10 41 275 385 420 359 731 716 774 631 479 357 372 381 396 268 31 24 1335 1532 1591 1610 1637 1496 1381 1498 1574 1627 1439 1413 1606
78 37 0 63 328 276 141 66 205 192 56 0 35 70 159 100 44 54 88 187 307 376 653 450 184 1145 704 798 770 662 567 321 273 307 794 1063 1214 1435 1607 1962 1640 1489 1460 1492 1388 1258 1232 1453 1922
304 181 71 54 139 263 33 58 26 322 31 313 335 8 90 105 86 84 219 343 389 453 377 494 504 1114 1340 1065 715 602 387 849 1110 863 919 932 1231 810 1450 1614 1386 1273 1208 1222 1231 1087 1275 1044 1624
259 310 154 105 11 22 87 50 134 275 115 224 228 147 101 216 163 162 195 259 320 488 659 598 524 830 1068 947 1321 1274 1248 1444 1380 1038 818 564 821 1927 992 1641 1608 1396 1367 1353 1229 1099 1297 943 742
339 731 477 44 19 92 123 120 272 173 124 118 164 192 178 133 124 97 110 151 348 509 778 612 899 1191 890 588 808 1068 860 832 1282 1376 838 663 503 409 273 475 605 422 1178 826 835 954 1004 908 1106
509 424 269 23 15 46 139 231 252 202 203 253 33 117 237 208 144 88 95 128 391 557 677 546 744 1074 489 256 287 541 568 521 730 1224 1257 1278 392 701 357 244 499 620 712 1032 1051 904 1468 1756 1878
416 368 244 91 20 23 77 246 259 231 323 352 111 218 181 156 179 94 68 163 341 547 681 613 696 812 1315 979 557 423 404 596 855 849 1297 1108 784 1026 1009 1523 1299 1434 1622 1553 1626 1694 1863 1893 1640
463 345 319 178 57 35 77 85 288 568 443 416 252 224 218 114 167 136 105 169 263 370 536 570 298 1160 1623 1601 1526 1228 844 1058 728 724 1185 1391 883 1062 1198 1581 1629 1729 1813 1655 1696 2062 1701 1813 1565
561 536 459 372 236 11 55 30 129 635 614 426 235 210 257 280 243 247 182 167 249 418 600 514 384 988 1459 1358 1320 770 894 675 613 962 1615 1072 558 1146 1093 1718 1650 1560 1977 2341 2023 1632 1652 1346 1373
568 383 334 543 610 221 110 13 88 400 521 487 278 237 283 372 435 587 601 539 331 447 856 570 100 610 1045 1308 1071 761 624 506 661 904 1067 1115 898 1320 1368 1738 1856 2317 1974 1519 1267 1166 1148 1223 1331
230 52 85 521 636 571 516 174 491 225 393 478 521 349 311 362 463 659 696 717 725 732 1013 841 482 515 984 1559 1227 1123 1215 556 822 1040 995 1145 815 1219 2016 1776 2159 2792 1718 1476 1167 1192 1469 1503 1546
55 33 5 300 515 586 525 370 621 592 433 423 584 603 496 456 442 616 677 735 770 808 981 1209 1117 1198 1282 1174 1686 1099 848 732 554 791 708 1084 823 1064 1745 1624 2399 2717 1902 1625 1690 2409 1972 1983 2038
13 0 8 398 382 600 481 313 264 751 199 374 702 553 477 457 429 577 721 831 911 861 715 1188 1297 1432 1336 716 1111 922 665 736 553 815 847 1068 1008 1312 1759 1417 2144 2767 2947 3169 3206 2643 2653 1900 1875
6 0 258 768 651 508 367 285 289 535 637 351 444 698 495 408 496 621 698 863 1026 1106 878 952 1269 1221 1342 848 1281 991 889 898 888 1074 1131 812 1127 1563 1072 1696 2145 3073 2752 3172 2805 2775 1871 1047 1365
10 35 138 195 793 672 525 606 500 481 650 697 574 338 423 509 612 747 799 818 1014 1153 1230 1072 1236 1039 1379 1193 1632 1593 1386 1777 1583 1264 1156 1120 1613 1329 1562 1330 1590 2466 3019 2649 2812 2795 2316 1345 1747
32 12 77 349 514 160 257 85 487 589 580 599 700 557 370 505 571 595 724 844 952 1067 1238 1201 904 975 1632 1996 1601 1496 1047 1200 854 743 755 1643 2099 1811 1873 666 987 1943 2357 2890 2858 2289 3174 2864 1590
4 54 373 282 139 68 132 139 248 490 566 522 496 400 341 303 459 427 589 618 768 1025 1086 1210 1152 1353 1757 2094 1888 1930 1221 965 943 675 1874 1729 2666 2254 1559 923 1006 1491 1836 2516 2158 2564 2579 2323 2304
42 313 445 314 80 114 22 1 121 219 271 367 428 397 539 405 351 413 504 586 666 880 1045 1044 1561 1368 1748 2149 2028 1905 1366 1285 1189 970 1169 1179 1795 2069 2193 1217 951 1033 1312 2051 1838 2585 2833 3065 2245
211 122 137 146 139 82 7 14 94 75 193 344 408 326 242 524 543 445 618 647 733 745 931 977 1609 1882 1653 1865 1824 1878 1923 1496 1063 1137 1021 1014 1139 1231 2066 2315 2025 642 1445 1442 2036 2870 2903 2809 2682
3 63 88 75 55 33 0 28 158 101 247 387 481 571 553 267 472 470 593 748 815 752 843 1029 1348 2017 1916 1876 1961 1876 2082 2237 1095 1109 962 923 733 673 1404 2453 2289 736 1410 1519 1344 2263 2252 2102 2291
10 2 15 4 0 0 34 8 52 81 255 294 462 542 525 624 319 420 553 682 776 827 861 1019 1230 1811 1947 1726 2100 1952 2207 2021 1191 1438 1820 1436 1345 1212 1911 2059 2220 2140 2018 2342 1736 1121 2395 2233 2271
0 7 3 2 25 23 30 0 23 9 96 128 208 350 623 508 455 217 345 738 780 743 830 1031 1279 1686 1867 1583 1781 1787 1822 1911 1811 1961 1861 1589 1548 1881 1618 2273 2105 2147 2314 2566 2566 1452 1995 2375 1585
0 1 0 9 14 37 34 30 0 27 126 258 242 343 495 510 439 448 284 248 648 788 839 946 1310 1454 1729 1610 1588 1749 1647 1667 1917 1765 1935 1920 2093 2251 2424 2267 2160 1964 2219 2439 2902 2240 1929 2285 2065
0 9 28 37 63 12 8 33 0 182 192 352 612 710 842 725 651 666 523 493 464 832 1022 1036 1161 1289 1384 1417 1585 1778 1768 1689 1568 1661 1562 1663 1956 2203 2353 1822 1576 1846 1892 2181 2451 1903 1465 1906 1833
CIN
-157 -54 -49 -60 -0 -0 -2 -3 -0 -0 -0 -4 -8 -0 -0 -16 -4 -2 -16 -6 -10 -0 -0 -0 -1 -3 -4 -2 -11 -0 -2 -1 -0 -2 -4 -4 -5 -0 -3 -0 -3 -8 -2 -0 -0 -0 -0 -0 -0
-100 -140 -76 -38 -0 -0 -0 -0 -15 -3 -4 -0 -6 -2 -0 -33 -67 -30 -3 -5 -5 -0 -0 -0 -11 -1 -0 -4 -18 -2 -2 -5 -3 -6 -3 -1 -2 -0 -3 -18 -1 -0 -0 -0 -0 -0 -0 -0 -0
-133 -115 -28 -1 -0 -0 -0 -0 -0 -24 -9 -0 -0 -0 -0 -14 -52 -8 -0 -0 -0 -0 -0 -0 -4 -3 -3 -3 -6 -6 -9 -8 -3 -0 -4 -6 -1 -4 -0 -1 -0 -0 -0 -0 -1 -3 -3 -2 -4
-39 -49 -46 -0 -0 -0 -0 -0 -8 -0 -1 -2 -1 -9 -33 -30 -29 -12 -0 -0 -0 -0 -0 -2 -5 -2 -2 -1 -8 -9 -4 -0 -3 -0 -4 -4 -2 -0 -0 -0 -1 -0 -1 -2 -1 -2 -4 -2 -2
-1 -17 -0 -1 -3 -0 -3 -16 -0 -0 -0 -2 -10 -13 -24 -11 -68 -18 -2 -0 -0 -0 -0 -0 -4 -4 -3 -7 -7 -4 -2 -1 -0 -0 -0 -0 -0 -0 -0 -0 -0 -0 -2 -0 -0 -0 -0 -4 -5
-2 -5 -7 -18 -39 -0 -6 -26 -2 -2 -4 -28 -0 -10 -1 -17 -57 -16 -9 -1 -0 -12 -5 -5 -3 -0 -0 -88 -6 -11 -10 -2 -1 -5 -0 -0 -1 -0 -0 -0 -0 -0 -1 -0 -0 -2 -14 -15 -8
-0 -43 -24 -19 -26 -0 -2 -27 -0 -23 -2 -8 -17 -0 -13 -33 -52 -27 -0 -22 -0 -0 -0 -0 -0 -0 -0 -0 -0 -16 -6 -0 -5 -8 -46 -54 -6 -1 -0 -0 -0 -0 -2 -3 -1 -15 -27 -27 -24
-1 -49 -0 -33 -0 -6 -45 -45 -33 -0 -13 -0 -7 -5 -20 -39 -62 -29 -1 -0 -0 -0 -0 -3 -29 -2 -11 -4 -0 -0 -0 -0 -4 -4 -0 -5 -0 -0 -0 -2 -0 -6 -7 -1 -25 -41 -40 -36 -30
-24 -0 -12 -11 -6 -13 -104 -54 -77 -9 -27 -10 -9 -6 -31 -58 -44 -19 -0 -0 -0 -0 -0 -0 -1 -0 -0 -0 -0 -5 -13 -0 -0 -1 -6 -11 -4 -0 -2 -8 -7 -9 -9 -24 -45 -55 -50 -84 -78
-0 -0 -7 -4 -39 -52 -91 -69 -29 -12 -7 -7 -17 -28 -58 -36 -23 -4 -0 -0 -0 -0 -0 -0 -0 -1 -0 -0 -0 -1 -0 -0 -0 -0 -0 -0 -0 -5 -0 -0 -2 -5 -20 -42 -47 -64 -61 -134 -5
-11 -0 -0 -13 -38 -12 -24 -98 -63 -1 -2 -4 -6 -28 -37 -36 -19 -12 -0 -2 -0 -0 -0 -0 -0 -0 -0 -0 -0 -0 -0 -0 -0 -0 -13 -5 -0 -6 -13 -16 -5 -22 -39 -2 -27 -43 -1 -15 -1
-0 -3 -0 -27 -22 -0 -5 -8 -12 -12 -0 -0 -8 -19 -19 -13 -6 -13 -10 -5 -0 -0 -0 -0 -0 -0 -0 -0 -0 -0 -0 -0 -0 -3 -0 -0 -1 -0 -3 -7 -10 -15 -0 -8 -12 -4 -12 -1 -1
-0 -8 -9 -14 -46 -26 -15 -16 -4 -7 -1 -0 -4 -9 -12 -8 -7 -26 -19 -1 -0 -0 -0 -0 -0 -0 -0 -0 -0 -0 -0 -0 -0 -0 -0 -0 -0 -0 -0 -0 -0 -0 -0 -0 -0 -0 -3 -1 -4
-10 -4 -1 -7 -30 -49 -30 -46 -1 -0 -1 -6 -5 -5 -5 -12 -13 -30 -24 -6 -0 -0 -0 -0 -8 -0 -0 -0 -0 -0 -0 -0 -0 -0 -0 -4 -1 -4 -1 -0 -0 -0 -0 -0 -0 -3 -3 -11 -13
-3 -0 -0 -0 -3 -18 -61 -21 -9 -0 -9 -0 -1 -0 -2 -6 -7 -4 -13 -11 -1 -0 -0 -1 -4 -0 -0 -0 -0 -0 -0 -0 -0 -0 -0 -21 -31 -29 -28 -1 -0 -0 -4 -8 -9 -14 -12 -11 -9
-0 -0 -0 -0 -0 -23 -73 -5 -63 -23 -1 -0 -5 -0 -7 -6 -0 -0 -1 -0 -4 -0 -0 -0 -13 -0 -0 -0 -0 -0 -0 -0 -0 -0 -2 -28 -49 -48 -24 -0 -0 -3 -1 -0 -6 -10 -11 -10 -14
-9 -0 -1 -1 -0 -0 -3 -0 -6 -63 -9 -0 -0 -0 -1 -1 -1 -1 -0 -0 -0 -0 -0 -0 -1 -0 -0 -0 -0 -0 -5 -6 -5 -4 -8 -39 -50 -45 -10 -0 -1 -11 -0 -0 -1 -12 -15 -12 -8
-0 -0 -6 -0 -5 -4 -0 -0 -3 -45 -58 -0 -0 -0 -0 -0 -0 -0 -0 -0 -0 -0 -0 -0 -0 -0 -0 -0 -0 -0 -2 -5 -13 -13 -29 -45 -43 -42 -20 -6 -6 -6 -0 -0 -0 -7 -11 -11 -14
-2 -0 -1 -10 -36 -13 -0 -1 -27 -2 -81 -51 -1 -0 -0 -0 -0 -0 -0 -0 -0 -0 -3 -0 -0 -0 -0 -4 -0 -0 -0 -2 -6 -3 -31 -37 -39 -39 -24 -9 -6 -2 -0 -1 -6 -6 -12 -6 -21
-0 -0 -0 -11 -27 -20 -15 -9 -20 -14 -13 -30 -28 -0 -0 -0 -0 -3 -0 -0 -0 -1 -7 -6 -1 -7 -1 -4 -0 -0 -0 -0 -0 -0 -10 -27 -27 -29 -37 -27 -8 -12 -0 -10 -14 -14 -6 -17 -26
-1 -0 -0 -0 -16 -12 -17 -3 -27 -29 -3 -0 -12 -48 -1 -0 -0 -0 -0 -0 -0 -0 -7 -11 -15 -26 -5 -0 -0 -0 -0 -0 -0 -0 -0 -6 -10 -17 -27 -41 -35 -21 -5 -0 -11 -7 -21 -0 -6
-0 -5 -4 -0 -0 -0 -6 -0 -5 -11 -18 -21 -0 -8 -17 -0 -0 -0 -0 -0 -0 -0 -0 -8 -24 -30 -1 -1 -0 -0 -0 -0 -0 -0 -0 -0 -0 -8 -14 -51 -51 -36 -6 -10 -3 -9 -7 -13 -0
-0 -15 -1 -0 -0 -0 -0 -0 -1 -17 -7 -7 -15 -29 -59 -23 -0 -0 -0 -0 -0 -0 -0 -5 -24 -19 -0 -0 -0 -0 -1 -0 -0 -0 -0 -0 -0 -0 -14 -42 -51 -34 -8 -14 -28 -13 -18 -0 -0
-20 -7 -8 -0 -0 -0 -4 -0 -0 -2 -2 -2 -8 -13 -13 -27 -0 -2 -0 -0 -0 -0 -0 -0 -12 -23 -6 -0 -2 -0 -0 -1 -0 -0 -0 -0 -0 -0 -5 -27 -52 -54 -31 -17 -14 -10 -6 -0 -2
-2 -0 -0 -4 -0 -0 -0 -0 -0 -3 -13 -20 -11 -11 -32 -14 -1 -11 -0 -1 -1 -1 -0 -0 -4 -10 -13 -4 -0 -0 -0 -0 -0 -0 -0 -0 -0 -0 -2 -8 -15 -46 -30 -33 -18 -2 -0 -0 -0
-0 -0 -0 -0 -0 -0 -0 -0 -0 -9 -17 -33 -48 -41 -26 -27 -37 -14 -5 -1 -5 -8 -4 -0 -4 -6 -5 -3 -1 -2 -0 -0 -0 -0 -0 -0 -0 -0 -0 -0 -0 -37 -14 -18 -30 -0 -0 -0 -0
-3 -0 -0 -0 -0 -0 -0 -0 -5 -9 -11 -20 -19 -41 -45 -36 -44 -33 -9 -0 -0 -11 -13 -14 -12 -12 -4 -9 -1 -3 -0 -0 -0 -0 -0 -0 -0 -0 -0 -0 -0 -0 -0 -0 -16 -4 -0 -0 -0
-0 -0 -0 -0 -0 -0 -0 -0 -0 -1 -8 -13 -20 -22 -38 -52 -56 -67 -41 -2 -0 -0 -3 -9 -12 -9 -9 -8 -1 -0 -0 -0 -0 -0 -0 -0 -0 -0 -0 -0 -0 -0 -0 -0 -2 -0 -0 -0 -0
-0 -0 -0 -0 -0 -0 -0 -0 -0 -8 -16 -5 -15 -24 -17 -28 -53 -57 -65 -61 -21 -0 -0 -0 -7 -4 -5 -11 -4 -2 -0 -0 -0 -0 -0 -0 -0 -0 -0 -0 -0 -0 -0 -0 -0 -0 -0 -0 -0
-0 -0 -0 -0 -0 -0 -0 -0 -0 -10 -15 -19 -17 -26 -28 -54 -43 -36 -46 -41 -31 -18 -3 -3 -2 -7 -8 -11 -6 -5 -6 -0 -0 -0 -0 -0 -0 -0 -0 -0 -1 -0 -0 -0 -0 -0 -0 -0 -0
Wind_Speed
11 9 8 8 11 13 1 4 5 11 6 4 3 9 9 10 nan 10 nan 12 12 14 14 8 14 10 9 8 11 10 10 10 13 12 11 11 11 7 9 12 7 9 10 16 21 24 14 6 6
7 nan 6 7 11 9 7 6 9 6 7 8 5 1 6 nan nan nan 10 11 12 13 15 19 16 11 9 8 9 7 10 9 17 14 11 12 11 9 13 13 6 9 14 18 20 13 6 7 8
nan 9 8 7 6 4 11 10 8 11 8 3 0 8 8 nan nan nan 11 10 13 16 21 21 17 15 11 8 9 8 10 12 16 12 13 12 10 13 10 12 9 12 13 14 12 6 7 5 7
10 7 5 3 6 14 12 6 4 10 9 3 4 5 nan nan nan 3 4 1 7 17 17 22 20 20 16 14 11 8 6 13 15 15 14 14 11 12 11 10 10 12 12 10 7 5 4 3 9
13 7 2 5 15 13 10 5 3 5 4 3 nan nan nan 4 nan 7 5 5 2 12 17 21 21 21 20 17 17 14 7 17 14 14 18 17 18 16 8 10 9 10 6 4 4 3 4 7 10
14 7 8 9 15 12 9 7 4 4 6 nan nan nan 7 1 nan nan nan 2 3 8 12 17 21 20 22 14 nan 20 23 25 18 16 19 22 19 13 4 7 7 5 6 5 5 7 10 10 5
11 6 nan 18 12 8 9 12 8 nan nan nan nan nan 5 4 nan nan nan nan 2 7 8 16 20 21 16 19 15 19 22 20 14 18 nan nan 17 4 5 4 4 7 7 9 9 13 13 8 5
nan nan nan nan 5 11 17 nan 9 9 nan nan nan nan 7 6 nan nan nan 3 3 6 6 4 13 10 4 3 8 6 6 11 11 11 7 7 7 2 2 6 7 6 10 12 15 15 11 7 6
10 12 nan nan 2 16 nan nan nan 9 nan 9 9 nan nan 7 nan nan 5 5 3 4 2 8 3 6 1 2 2 2 6 5 3 5 7 12 11 6 11 8 7 10 14 17 17 15 12 12 9
6 6 2 8 nan nan nan nan 10 5 6 9 8 12 10 7 8 6 6 5 5 4 5 4 3 5 5 3 5 5 4 3 3 3 2 3 5 13 10 9 11 13 17 19 17 15 16 23 12
1 1 5 nan nan nan 7 17 15 8 2 6 7 8 6 9 9 nan 6 4 6 7 4 7 6 5 6 5 5 7 5 4 2 4 3 2 7 14 14 13 15 18 23 20 19 16 20 10 13
4 2 8 nan nan nan 15 19 8 9 10 9 nan 8 5 10 9 nan nan 7 11 8 7 6 4 6 6 4 5 4 4 4 4 2 3 7 12 14 15 13 15 22 23 19 19 16 14 15 11
8 7 12 nan nan nan nan 17 12 6 8 5 3 5 6 10 8 nan nan 11 13 7 6 5 5 5 4 5 4 3 3 6 4 7 8 12 11 13 11 12 19 23 22 18 18 16 14 12 15
9 7 12 6 nan nan nan nan 15 11 8 1 5 4 6 7 6 5 5 11 9 7 5 6 3 4 6 8 7 5 5 4 7 8 7 9 12 13 12 17 21 23 21 19 17 14 11 9 12
11 5 7 6 3 nan nan nan 9 11 7 3 6 4 4 6 5 4 4 7 6 4 3 4 3 2 8 9 7 8 5 7 7 7 7 8 15 11 19 21 23 20 18 17 14 12 10 6 7
4 2 2 7 2 2 2 nan nan 18 14 8 5 3 6 6 8 4 3 3 2 2 1 3 2 2 10 7 7 10 10 10 11 12 10 10 11 15 18 22 23 20 17 15 14 12 9 6 9
3 nan nan 4 4 2 7 6 9 6 10 14 6 5 6 7 7 5 6 3 4 3 4 2 1 1 3 4 6 10 9 8 12 13 12 10 11 15 20 20 20 20 16 15 15 10 9 5 8
nan nan nan 7 5 7 5 5 6 7 7 7 6 7 7 10 9 7 3 2 4 4 3 6 3 5 6 5 5 6 8 12 15 16 13 10 12 15 18 18 22 19 13 11 11 10 5 7 9
nan nan nan 14 10 4 1 3 6 6 3 3 8 5 6 7 5 4 2 2 5 5 5 3 4 4 5 5 5 3 9 13 15 15 11 11 12 14 17 15 16 16 14 14 8 6 7 8 9
nan nan 21 16 12 4 8 3 4 7 4 3 9 10 6 3 6 4 5 3 3 4 4 3 3 2 3 3 4 9 14 12 14 14 13 12 11 13 15 16 15 18 13 10 8 8 5 6 6
nan nan 11 17 9 4 5 3 7 10 5 5 10 10 11 8 6 4 2 3 2 2 3 2 2 2 2 3 5 7 6 14 11 14 14 12 10 11 14 14 16 14 15 10 7 6 6 7 2
nan nan nan 8 6 11 7 nan 11 9 10 5 5 7 5 4 10 9 3 0 1 3 5 5 2 3 3 1 5 8 10 8 9 11 18 14 10 11 13 17 13 13 13 12 9 8 8 5 5
nan nan 7 7 6 nan 15 6 22 8 7 10 8 10 2 14 7 6 4 1 1 6 5 7 4 2 2 2 5 5 9 10 13 12 15 17 12 12 13 16 16 15 12 13 12 9 10 6 7
nan 2 3 4 nan 11 nan nan 22 14 10 10 13 10 5 6 5 6 4 2 3 4 6 10 5 2 1 2 1 2 6 14 14 13 14 13 11 11 13 16 17 17 17 13 11 10 9 8 5
8 9 11 10 10 nan nan nan nan nan 13 13 10 11 3 7 4 2 3 1 3 5 6 8 7 2 1 0 3 2 5 10 12 14 15 15 15 14 13 13 14 14 15 15 15 12 12 8 7
nan nan nan nan nan nan nan nan 21 15 8 10 6 5 5 11 4 8 1 2 5 7 6 5 7 5 3 3 2 5 6 11 10 12 17 14 14 16 17 14 15 12 13 16 15 12 11 9 7
nan nan nan nan nan nan nan nan nan nan 8 2 4 6 5 5 10 9 9 5 3 4 6 7 7 6 5 5 6 4 8 10 11 13 14 15 16 18 16 15 17 13 13 14 15 10 10 9 6
nan nan nan nan nan nan nan nan nan nan nan 10 1 8 11 11 8 13 13 10 7 6 11 13 9 8 8 6 7 6 6 8 11 12 11 14 16 15 18 14 12 13 11 10 12 13 11 10 8
nan nan nan nan nan nan nan nan nan nan 14 14 14 11 12 11 9 11 9 15 17 13 14 13 12 10 8 9 9 7 7 6 10 11 9 8 9 13 12 11 11 11 10 11 13 14 15 12 12
nan nan nan nan nan nan nan nan nan 12 14 14 17 18 19 17 11 8 10 11 14 11 15 16 17 12 11 11 11 12 9 7 8 9 8 6 8 9 9 8 7 6 5 6 7 7 8 10 9
Wind_Direction
31 49 82 73 79 69 15 344 322 305 330 220 240 154 234 184 nan 217 nan 226 231 230 226 223 206 214 218 215 231 263 310 242 219 239 247 250 249 254 263 248 263 293 322 303 303 310 315 324 312
26 nan 79 85 88 22 274 253 322 285 285 290 260 356 173 nan nan nan 274 253 237 220 216 214 210 217 220 215 232 260 294 233 217 222 236 249 253 274 280 276 334 312 311 319 316 329 323 306 290
nan 56 95 107 94 192 265 231 280 305 315 346 298 186 155 nan nan nan 253 245 230 212 216 217 214 220 222 230 242 239 266 243 219 226 235 249 274 287 308 319 303 312 317 328 329 345 328 324 325
0 16 27 116 244 217 246 231 343 320 298 262 257 224 nan nan nan 280 12 22 236 230 227 219 219 221 231 236 250 275 258 227 214 228 240 246 271 275 296 286 291 308 337 353 330 326 332 15 72
358 349 41 235 229 234 212 180 150 319 302 310 nan nan nan 150 nan 319 18 44 255 237 249 214 223 229 226 228 231 252 231 217 213 222 240 251 262 269 250 270 301 317 359 350 351 350 56 79 72
6 358 167 199 223 238 204 155 181 250 328 nan nan nan 204 129 nan nan nan 40 265 264 216 226 223 231 246 220 nan 228 233 209 207 236 253 255 261 259 245 281 312 10 34 5 28 63 81 96 78
35 34 nan 199 230 245 201 146 187 nan nan nan nan nan 273 349 nan nan nan nan 273 278 287 215 217 249 264 270 228 219 224 230 226 255 nan nan 244 155 249 300 42 57 35 40 55 84 98 108 100
nan nan nan nan 225 219 183 nan 147 183 nan nan nan nan 342 6 nan nan nan 312 347 296 329 153 177 210 185 259 243 177 224 209 204 245 219 187 150 191 317 66 72 62 59 67 82 99 107 104 80
69 55 nan nan 217 242 nan nan nan 134 nan 216 160 nan nan 339 nan nan 309 250 266 234 314 328 120 135 110 196 309 74 257 275 358 306 351 46 80 72 66 141 84 72 75 88 101 103 101 73 53
49 59 14 293 nan nan nan nan 138 90 8 247 244 264 286 351 32 16 5 319 293 264 231 206 103 337 25 334 347 63 43 75 171 233 274 170 122 131 124 117 94 89 95 106 111 105 87 70 53
6 189 319 nan nan nan 201 186 157 126 48 223 303 305 333 14 27 nan 336 320 274 287 260 232 183 203 148 174 88 75 73 68 192 234 187 190 88 93 97 99 94 99 102 105 93 83 80 85 76
346 245 311 nan nan nan 156 144 130 145 184 198 nan 323 8 34 31 nan nan 311 314 256 246 235 202 199 177 130 118 108 106 88 64 180 104 100 105 109 113 115 118 118 125 128 112 95 103 83 51
265 305 319 nan nan nan nan 161 149 139 159 184 331 338 28 45 23 nan nan 328 310 242 220 230 209 178 196 145 143 148 95 111 106 111 141 121 112 115 103 125 129 134 127 120 109 102 97 78 51
263 304 322 18 nan nan nan nan 139 167 158 131 27 7 55 49 34 10 359 352 350 193 188 230 231 199 187 174 162 182 155 151 137 138 143 125 121 124 123 133 137 138 136 130 123 122 110 83 42
290 307 325 355 29 nan nan nan 177 187 155 105 58 12 53 58 42 18 346 12 50 123 219 251 259 218 143 154 154 172 162 162 149 155 141 138 129 124 131 138 138 141 135 127 119 105 87 81 51
228 158 258 310 60 278 120 nan nan 145 152 115 89 57 54 60 52 24 316 43 53 158 83 277 245 126 133 154 151 184 182 163 154 147 137 131 133 136 131 137 137 137 131 133 123 114 108 96 69
132 nan nan 314 43 275 72 265 323 129 148 116 102 95 76 73 76 41 327 11 54 179 240 294 154 178 172 175 153 166 185 175 168 159 147 141 143 146 137 140 145 140 138 133 124 125 119 78 66
nan nan nan 186 341 47 352 263 296 315 239 136 118 110 96 90 70 49 23 330 83 98 39 145 121 152 145 139 140 165 192 182 172 166 163 143 145 136 142 149 155 146 148 136 135 131 93 130 103
nan nan nan 233 261 304 325 195 283 318 255 195 125 107 97 93 112 115 76 270 109 133 111 93 83 143 112 103 109 186 176 171 168 165 161 148 146 140 151 153 161 161 157 167 131 120 93 91 78
nan nan 239 246 272 259 251 191 309 2 312 292 172 122 82 50 83 110 145 193 151 169 182 122 109 87 127 144 130 159 159 162 165 176 170 149 145 151 153 164 178 183 193 187 189 169 147 97 65
nan nan 240 221 258 224 196 324 323 340 348 255 261 192 104 111 106 108 111 143 213 194 236 240 111 73 97 137 137 123 141 160 162 186 178 164 158 163 165 175 177 189 176 209 201 178 166 136 41
nan nan nan 271 77 259 194 nan 305 317 341 290 270 244 124 140 118 100 82 9 244 226 251 253 275 36 63 28 135 115 121 170 165 169 189 188 173 176 181 186 191 187 193 212 220 205 179 149 159
nan nan 200 212 221 nan 284 101 275 282 331 352 355 289 7 136 130 125 119 215 204 264 266 267 264 14 111 81 145 172 136 181 186 172 195 179 183 178 186 192 198 199 195 226 219 212 212 210 164
nan 261 246 227 nan 52 nan nan 295 269 261 282 343 14 325 111 127 124 92 134 202 251 251 262 258 84 63 161 232 188 177 161 178 179 184 183 184 187 192 199 195 198 204 211 219 210 224 204 185
7 23 25 12 344 nan nan nan nan nan 267 265 290 353 48 131 155 95 94 75 220 235 254 237 247 223 344 323 152 186 173 164 165 178 177 203 198 192 211 206 198 202 206 212 214 219 220 241 225
nan nan nan nan nan nan nan nan 261 253 245 277 274 297 324 351 221 159 159 266 257 243 258 250 248 196 227 276 211 174 191 198 186 199 203 215 208 207 217 204 208 221 220 223 217 210 208 252 228
nan nan nan nan nan nan nan nan nan nan 249 313 233 254 265 326 343 277 250 248 187 229 266 280 253 229 206 255 267 223 189 178 192 197 220 225 212 216 218 216 222 237 234 230 237 226 239 227 228
nan nan nan nan nan nan nan nan nan nan nan 236 216 245 257 260 284 325 246 232 219 252 263 271 245 247 243 235 249 257 236 190 188 201 204 214 216 216 231 233 239 236 233 242 252 255 257 244 238
nan nan nan nan nan nan nan nan nan nan 255 238 246 250 243 247 273 307 310 264 232 241 264 262 240 232 241 251 253 250 243 218 206 199 197 191 211 217 221 229 230 233 241 249 248 240 233 253 244
nan nan nan nan nan nan nan nan nan 273 262 252 252 245 234 228 225 238 266 290 294 302 281 244 240 236 228 236 250 261 259 247 247 220 204 193 192 204 201 207 212 207 221 235 255 255 242 256 242